Regional Weather Roundup
Issued by NWS Upton, NY

Current Version | Previous Version | Graphics & Text | Print | Product List | Glossary Off
Versions: 1 2 3 4 5 6 7 8 9 10 11 12 13 14 15 16 17 18 19 20 21 22 23 24 25 26 27 28 29 30 31 32 33 34 35 36 37 38 39 40 41 42 43 44 45 46 47 48

000
ASUS41 KOKX 021405
RWROKX

REGIONAL WEATHER ROUNDUP
NATIONAL WEATHER SERVICE NEW YORK NY
900 AM EST MON MAR 02 2015

NOTE: "FAIR" INDICATES FEW OR NO CLOUDS BELOW 12,000 FEET WITH NO
SIGNIFICANT WEATHER AND/OR OBSTRUCTIONS TO VISIBILITY.

NYZ071-072-176-178-NJZ106-104-021500-
NEW YORK CITY METRO AREA


CITY           SKY/WX    TMP DP  RH WIND       PRES   REMARKS
CENTRAL PARK   CLOUDY    34  25  69 MISG      30.12R
LAGUARDIA APRT CLOUDY    34  26  72 NW13      30.11R WCI  25
KENNEDY INTL   CLOUDY    35  26  69 NW14      30.11R WCI  26
NEWARK/LIBERTY CLOUDY    34  27  75 NW14G24   30.12R WCI  25
BRNX BOT. GARD   N/A    N/A N/A N/A W10       30.11R
TETERBORO      CLOUDY    33  25  72 NW9       30.11R WCI  25
$$

NYZ177-179-078>081-021500-
LONG ISLAND NEW YORK

CITY           SKY/WX    TMP DP  RH WIND       PRES   REMARKS
FARMINGDALE    CLOUDY    33  26  75 NW14G21   30.08R WCI  23
ISLIP          CLOUDY    33  26  75 NW14      30.04S WCI  23
SHIRLEY        CLOUDY    32  28  85 NW9       30.06R WCI  24
WESTHAMPTON    CLOUDY    31  28  89 NW8       30.06R WCI  23
MONTAUK POINT    N/A     31  27  85 W12G20    30.02R WCI  22
$$

NYZ052-065-067-021500-
HUDSON VALLEY

CITY           SKY/WX    TMP DP  RH WIND       PRES   REMARKS
WHITE PLAINS   CLOUDY    31  21  66 NW22G30   30.06R WCI  18
NEWBURGH       PTSUNNY   30  21  69 NW18G29   30.09R WCI  18
MONTGOMERY     MIX PCPN  31  17  56 W15G31    30.08R WCI  20
POUGHKEEPSIE   PTSUNNY   28  23  81 CALM      30.08R HAZE
ALBANY         PTSUNNY   26  15  63 W22G32    30.07R WCI  12
$$

NJZ001-105-106-008-010-013-015-019>022-104-021500-
NEW JERSEY

CITY           SKY/WX    TMP DP  RH WIND       PRES   REMARKS
NEWARK/LIBERTY CLOUDY    34  27  75 NW14G24   30.12R WCI  25
TETERBORO      CLOUDY    33  25  72 NW9       30.11R WCI  25
CALDWELL       CLOUDY    32  23  69 NW7       30.12R WCI  26
MORRISTOWN     LGT SNOW  32  27  80 NW6G13    30.13R WCI  26
SOMERVILLE     CLOUDY    33  27  78 NW7       30.12R HAZE    WCI  27
SUSSEX         PTSUNNY   31  20  63 VRB7      30.11R WCI  24
ANDOVER          N/A     27  23  85 MISG      30.11R
TRENTON        CLOUDY    35  29  78 NW7       30.13R WCI  29
MILLVILLE      PTSUNNY   33  31  92 W8        30.15R FOG     WCI  26
ATLANTIC CITY  PTSUNNY   33  31  92 W10       30.13R FOG     WCI  25
WRIGHTSTOWN    CLOUDY    35  31  84 NW12      30.12R WCI  27
TOMS RIVER     CLOUDY    34  30  86 NW15G26   30.12R WCI  24
BELMAR         CLOUDY    34  27  75 CALM      30.10R
$$

PAZ047>061-062-071-021500-
EASTERN PENNSYLVANIA

CITY           SKY/WX    TMP DP  RH WIND       PRES   REMARKS
PHILADELPHIA   PTSUNNY   37  30  75 NW12      30.17R WCI  29
ALLENTOWN      LGT SNOW  32  27  80 NW9       30.15R WCI  24
SCRANTON       LGT SNOW  26  19  74 NW18      30.15R VSB 1   WCI  13
$$

CTZ002-004>006-009-010-012-RIZ004-006-007-MAZ004-011-015-021500-
SOUTHERN NEW ENGLAND
 IN CT

CITY           SKY/WX    TMP DP  RH WIND       PRES   REMARKS
BRADLEY INTL   PTSUNNY   32  22  66 NW13      30.02R WCI  22
HARTFORD       PTSUNNY   32  21  64 W14G22    30.04R WCI  22
DANBURY        PTSUNNY   30  19  63 W12G25    30.05R WCI  20
WTRBRY/OXFORD  CLOUDY    27  18  69 NW9       30.03R WCI  17
BRIDGEPORT     CLOUDY    34  25  69 NW16G23   30.05R WCI  24
MERIDEN        CLOUDY    30  23  75 N5        30.05R WCI  25
NEW HAVEN      CLOUDY    31  29  92 CALM      30.05R
CHESTER        PTSUNNY   30  25  80 NW6       30.01S WCI  24
GROTON         CLOUDY    29  24  82 W9        30.01S WCI  20
WILLIMANTIC    PTSUNNY   31  22  69 NW9       30.01R WCI  23

 IN RI

CITY           SKY/WX    TMP DP  RH WIND       PRES   REMARKS
PROVIDENCE     PTSUNNY   29  23  78 W8        29.98S WCI  21
BLOCK ISLAND   CLOUDY    30  27  86 W13G18    29.99S WCI  20
WESTERLY       CLOUDY    30  25  81 W6        30.01R WCI  24

 IN MA

CITY           SKY/WX    TMP DP  RH WIND       PRES   REMARKS
BOSTON         PTSUNNY   31  23  72 W14       29.95R WCI  21
WORCESTER      MOSUNNY   26  20  77 W20G26    29.91R WCI  12
WESTFIELD      FLURRIES  30  18  60 W20G29    30.01R WCI  17
PROVINCETOWN   PTSUNNY   30  27  86 W13       29.94S WCI  20
NANTUCKET      CLOUDY    31  27  85 W15       29.96R WCI  20
$$

ANZ330-335-338-340-345-350-353-355-021500-
COASTAL MARINE OBSERVATIONS


STATION/POSITION TIME  SKY/WX   TEMP    WIND        PRES    VSBY  WAVE
                                AIR SEA DIR/SP/G                  HT/PER
                 (UTC)          (F)     (DEG/KT/KT) (MB)    (MI)  (FT/S)
NY HARB ENTRANCE 1400            34 37  300/ 17/ 21 1018.9          2/ 7
4S FIRE IS       1400               32                N/A           3/ 3
20S FIRE ISLAND  1300               36              1018.1          3/ 3
23SW MTP         1400                                 N/A           4/ 4
HUDSON CANYON    NOT AVBL
EXECUTION ROCKS  NOT AVBL
WESTERN LI SOUND NOT AVBL
CENTRAL LI SOUND NOT AVBL
EASTERN LI SOUND NOT AVBL
ROBBINS REEF     1400            33     320/ 15/ 20 1018.5
$$


>>>>>>>>>>>>>>>>>>>>>>>>>>>> KEY <<<<<<<<<<<<<<<<<<<<<<<<<<<
>                                                          <
>     SKY/WX - SKY CONDITION/PRESENT WEATHER               <
>     TMP    - TEMPERATURE IN FAHRENHEIT                   <
>     DP     - DEWPOINT IN FAHRENHEIT                      <
>     RH     - RELATIVE HUMIDITY IN PERCENT                <
>     WIND   - DIRECTION AND SPEED IN MPH                  <
>     PRES   - MEAN SEA LEVEL PRESSURE IN INCHES OF HG     <
>     WCI    - WIND CHILL INDEX                            <
>     VSB    - VISIBILITY IN MILES                         <
>     HX     - HEAT INDEX                                  <
>     TC     - TEMPERATURE IN CELSIUS                      <
>     VRB    - VARIABLE WIND DIRECTION                     <
>                                                          <
>>>>>>>>>>>>>>>>>>>>>>>>>>>> KEY <<<<<<<<<<<<<<<<<<<<<<<<<<<





USA.gov is the U.S. government's official web portal to all federal, state and local government web resources and services.